Time,TemperatureF,DewpointF,PressureIn,WindDirection,WindDirectionDegrees,WindSpeedMPH,WindSpeedGustMPH,Humidity,HourlyPrecipIn,Conditions,Clouds,dailyrainin,SoftwareType,DateUTC
2013-01-21 00:00:00,20.3,7.7,29.44,NNW,338,3.8,6.7,58,0.00,,,0.00,WUHU216HW,2013-01-21 06:00:00,
2013-01-21 00:05:00,20.1,8.0,29.43,North,0,7.8,7.8,59,0.00,,,0.00,WUHU216HW,2013-01-21 06:05:00,
2013-01-21 00:10:00,19.9,7.8,29.44,NNW,338,0.0,7.8,59,0.00,,,0.00,WUHU216HW,2013-01-21 06:10:00,
2013-01-21 00:15:00,19.7,7.6,29.44,NNW,338,0.0,1.3,59,0.00,,,0.00,WUHU216HW,2013-01-21 06:15:00,
2013-01-21 00:20:00,19.5,7.4,29.44,NNW,338,0.0,1.3,59,0.00,,,0.00,WUHU216HW,2013-01-21 06:20:00,
2013-01-21 00:26:00,19.2,7.5,29.44,NNW,338,0.0,0.0,60,0.00,,,0.00,WUHU216HW,2013-01-21 06:26:00,
2013-01-21 00:31:00,19.2,7.8,29.43,NNW,338,4.6,4.6,61,0.00,,,0.00,WUHU216HW,2013-01-21 06:31:00,
2013-01-21 00:36:00,19.0,8.0,29.43,NNW,338,0.0,4.6,62,0.00,,,0.00,WUHU216HW,2013-01-21 06:36:00,
2013-01-21 00:41:00,18.8,7.8,29.43,North,0,0.0,1.1,62,0.00,,,0.00,WUHU216HW,2013-01-21 06:41:00,
2013-01-21 00:46:00,18.6,7.7,29.43,North,0,0.0,6.4,62,0.00,,,0.00,WUHU216HW,2013-01-21 06:46:00,
2013-01-21 00:51:00,18.5,7.5,29.43,NNW,338,9.6,9.6,62,0.00,,,0.00,WUHU216HW,2013-01-21 06:51:00,
2013-01-21 00:56:00,18.5,7.5,29.43,North,0,0.0,9.6,62,0.00,,,0.00,WUHU216HW,2013-01-21 06:56:00,
2013-01-21 01:02:00,18.3,7.4,29.43,North,0,0.0,9.6,62,0.00,,,0.00,WUHU216HW,2013-01-21 07:02:00,
2013-01-21 01:07:00,18.3,7.7,29.43,NNW,338,0.0,0.0,63,0.00,,,0.00,WUHU216HW,2013-01-21 07:07:00,
2013-01-21 01:12:00,18.3,7.7,29.43,NNW,338,2.6,2.6,63,0.00,,,0.00,WUHU216HW,2013-01-21 07:12:00,
2013-01-21 01:17:00,18.1,7.5,29.43,North,0,0.0,6.9,63,0.00,,,0.00,WUHU216HW,2013-01-21 07:17:00,
2013-01-21 01:22:00,18.1,7.5,29.43,North,0,0.0,6.9,63,0.00,,,0.00,WUHU216HW,2013-01-21 07:22:00,
2013-01-21 01:27:00,17.7,7.7,29.43,North,0,0.0,1.3,64,0.00,,,0.00,WUHU216HW,2013-01-21 07:27:00,
2013-01-21 01:33:00,17.7,7.6,29.43,North,0,6.7,8.7,64,0.00,,,0.00,WUHU216HW,2013-01-21 07:33:00,
2013-01-21 01:38:00,17.7,7.6,29.43,NNW,338,0.0,8.7,64,0.00,,,0.00,WUHU216HW,2013-01-21 07:38:00,
2013-01-21 01:43:00,17.4,7.2,29.43,North,0,0.0,6.9,64,0.00,,,0.00,WUHU216HW,2013-01-21 07:43:00,
2013-01-21 01:48:00,17.4,7.2,29.43,North,0,0.0,0.0,64,0.00,,,0.00,WUHU216HW,2013-01-21 07:48:00,
2013-01-21 01:53:00,17.2,7.0,29.43,NNE,23,0.0,0.0,64,0.00,,,0.00,WUHU216HW,2013-01-21 07:53:00,
2013-01-21 01:58:00,17.2,7.4,29.43,NNE,23,0.0,0.0,65,0.00,,,0.00,WUHU216HW,2013-01-21 07:58:00,
2013-01-21 02:03:00,16.8,7.0,29.43,NNE,23,0.0,0.0,65,0.00,,,0.00,WUHU216HW,2013-01-21 08:03:00,
2013-01-21 02:08:00,16.8,7.0,29.43,NNE,23,5.1,5.1,65,0.00,,,0.00,WUHU216HW,2013-01-21 08:08:00,
2013-01-21 02:13:00,16.7,7.2,29.44,North,0,0.0,5.1,66,0.00,,,0.00,WUHU216HW,2013-01-21 08:13:00,
2013-01-21 02:18:00,16.8,7.4,29.44,North,0,0.0,5.1,66,0.00,,,0.00,WUHU216HW,2013-01-21 08:18:00,
2013-01-21 02:24:00,16.8,7.4,29.45,NNW,338,10.5,10.5,66,0.00,,,0.00,WUHU216HW,2013-01-21 08:24:00,
2013-01-21 02:29:00,16.8,7.7,29.45,North,0,0.0,10.5,67,0.00,,,0.00,WUHU216HW,2013-01-21 08:29:00,
2013-01-21 02:34:00,16.8,7.7,29.45,North,0,0.0,10.5,67,0.00,,,0.00,WUHU216HW,2013-01-21 08:34:00,
2013-01-21 02:39:00,16.8,7.7,29.45,North,0,9.1,9.1,67,0.00,,,0.00,WUHU216HW,2013-01-21 08:39:00,
2013-01-21 02:44:00,16.8,7.4,29.46,North,0,0.0,9.1,66,0.00,,,0.00,WUHU216HW,2013-01-21 08:44:00,
2013-01-21 02:49:00,16.7,7.5,29.46,North,0,0.0,9.1,67,0.00,,,0.00,WUHU216HW,2013-01-21 08:49:00,
2013-01-21 02:54:00,16.5,7.3,29.46,North,0,0.0,0.0,67,0.00,,,0.00,WUHU216HW,2013-01-21 08:54:00,
2013-01-21 02:59:00,16.3,7.2,29.46,NNW,338,4.6,7.3,67,0.00,,,0.00,WUHU216HW,2013-01-21 08:59:00,
2013-01-21 03:04:00,16.3,7.2,29.46,North,0,0.0,7.3,67,0.00,,,0.00,WUHU216HW,2013-01-21 09:04:00,
2013-01-21 03:09:00,16.3,7.2,29.46,North,0,0.0,4.2,67,0.00,,,0.00,WUHU216HW,2013-01-21 09:09:00,
2013-01-21 03:14:00,16.3,7.5,29.46,North,0,0.0,4.2,68,0.00,,,0.00,WUHU216HW,2013-01-21 09:14:00,
2013-01-21 03:19:00,16.1,7.3,29.46,NNW,338,0.0,3.8,68,0.00,,,0.00,WUHU216HW,2013-01-21 09:19:00,
2013-01-21 03:24:00,15.9,7.1,29.46,NNW,338,0.0,3.8,68,0.00,,,0.00,WUHU216HW,2013-01-21 09:24:00,
2013-01-21 03:29:00,15.9,7.0,29.46,NNW,338,0.0,0.0,68,0.00,,,0.00,WUHU216HW,2013-01-21 09:29:00,
2013-01-21 03:34:00,15.6,6.8,29.45,NNW,338,0.0,0.0,68,0.00,,,0.00,WUHU216HW,2013-01-21 09:34:00,
2013-01-21 03:39:00,15.4,6.6,29.45,NNW,338,0.0,0.0,68,0.00,,,0.00,WUHU216HW,2013-01-21 09:39:00,
2013-01-21 03:44:00,15.0,6.3,29.45,NNW,338,0.0,0.0,68,0.00,,,0.00,WUHU216HW,2013-01-21 09:44:00,
2013-01-21 03:49:00,14.7,6.0,29.44,NNW,338,0.0,0.0,68,0.00,,,0.00,WUHU216HW,2013-01-21 09:49:00,
2013-01-21 03:55:00,14.3,5.7,29.45,NNW,338,0.0,0.0,68,0.00,,,0.00,WUHU216HW,2013-01-21 09:55:00,
2013-01-21 04:00:00,13.8,5.2,29.44,NNW,338,0.0,0.0,68,0.00,,,0.00,WUHU216HW,2013-01-21 10:00:00,
2013-01-21 04:05:00,13.6,5.0,29.44,NNW,338,0.0,0.0,68,0.00,,,0.00,WUHU216HW,2013-01-21 10:05:00,
2013-01-21 04:10:00,13.6,5.0,29.44,NNW,338,0.0,0.0,68,0.00,,,0.00,WUHU216HW,2013-01-21 10:10:00,
2013-01-21 04:15:00,13.2,5.0,29.44,NNW,338,0.0,0.0,69,0.00,,,0.00,WUHU216HW,2013-01-21 10:15:00,
2013-01-21 04:20:00,13.1,4.8,29.43,NNW,338,0.0,0.0,69,0.00,,,0.00,WUHU216HW,2013-01-21 10:20:00,
2013-01-21 04:25:00,12.7,4.4,29.43,NNW,338,0.0,0.0,69,0.00,,,0.00,WUHU216HW,2013-01-21 10:25:00,
2013-01-21 04:30:00,12.7,4.4,29.43,NNW,338,0.0,0.0,69,0.00,,,0.00,WUHU216HW,2013-01-21 10:30:00,
2013-01-21 04:35:00,12.5,4.6,29.43,NNW,338,0.0,0.0,70,0.00,,,0.00,WUHU216HW,2013-01-21 10:35:00,
2013-01-21 04:40:00,12.5,4.9,29.43,NNW,338,0.0,0.0,71,0.00,,,0.00,WUHU216HW,2013-01-21 10:40:00,
2013-01-21 04:45:00,12.5,4.9,29.43,NNW,338,0.0,0.0,71,0.00,,,0.00,WUHU216HW,2013-01-21 10:45:00,
2013-01-21 04:50:00,12.3,4.7,29.43,NNW,338,0.0,0.0,71,0.00,,,0.00,WUHU216HW,2013-01-21 10:50:00,
2013-01-21 04:55:00,12.0,4.3,29.42,NNW,338,0.0,0.0,71,0.00,,,0.00,WUHU216HW,2013-01-21 10:55:00,
2013-01-21 05:01:00,11.8,4.2,29.42,NNW,338,0.0,0.0,71,0.00,,,0.00,WUHU216HW,2013-01-21 11:01:00,
2013-01-21 05:05:00,11.4,4.1,29.42,NNW,338,0.0,0.0,72,0.00,,,0.00,WUHU216HW,2013-01-21 11:05:00,
2013-01-21 05:11:00,11.1,3.7,29.43,NNW,338,0.0,0.0,72,0.00,,,0.00,WUHU216HW,2013-01-21 11:11:00,
2013-01-21 05:16:00,11.3,3.9,29.42,NNW,338,0.0,0.0,72,0.00,,,0.00,WUHU216HW,2013-01-21 11:16:00,
2013-01-21 05:21:00,11.3,3.9,29.43,NNW,338,0.0,0.0,72,0.00,,,0.00,WUHU216HW,2013-01-21 11:21:00,
2013-01-21 05:26:00,11.3,3.9,29.43,NNW,338,0.0,0.0,72,0.00,,,0.00,WUHU216HW,2013-01-21 11:26:00,
2013-01-21 05:31:00,11.4,4.4,29.42,NNW,338,0.0,0.0,73,0.00,,,0.00,WUHU216HW,2013-01-21 11:31:00,
2013-01-21 05:36:00,11.4,4.4,29.42,NNW,338,0.0,0.0,73,0.00,,,0.00,WUHU216HW,2013-01-21 11:36:00,
2013-01-21 05:41:00,11.8,4.7,29.42,NNW,338,0.0,0.0,73,0.00,,,0.00,WUHU216HW,2013-01-21 11:41:00,
2013-01-21 05:46:00,12.0,4.9,29.42,NNW,338,0.0,0.0,73,0.00,,,0.00,WUHU216HW,2013-01-21 11:46:00,
2013-01-21 05:51:00,12.0,4.9,29.42,NNW,338,0.0,0.0,73,0.00,,,0.00,WUHU216HW,2013-01-21 11:51:00,
2013-01-21 05:56:00,12.0,4.9,29.43,NNW,338,0.0,0.0,73,0.00,,,0.00,WUHU216HW,2013-01-21 11:56:00,
2013-01-21 06:01:00,12.2,5.3,29.43,NNW,338,0.0,0.0,73,0.00,,,0.00,WUHU216HW,2013-01-21 12:01:00,
2013-01-21 06:06:00,12.3,5.3,29.43,NNW,338,0.0,0.0,73,0.00,,,0.00,WUHU216HW,2013-01-21 12:06:00,
2013-01-21 06:11:00,12.5,5.5,29.43,NNW,338,0.0,0.0,73,0.00,,,0.00,WUHU216HW,2013-01-21 12:11:00,
2013-01-21 06:16:00,12.3,5.3,29.43,NNW,338,0.0,0.0,73,0.00,,,0.00,WUHU216HW,2013-01-21 12:16:00,
2013-01-21 06:21:00,12.3,5.3,29.43,NNW,338,0.0,0.0,73,0.00,,,0.00,WUHU216HW,2013-01-21 12:21:00,
2013-01-21 06:26:00,12.2,5.1,29.43,NNW,338,0.0,0.0,73,0.00,,,0.00,WUHU216HW,2013-01-21 12:26:00,
2013-01-21 06:31:00,12.0,4.9,29.42,NNW,338,0.0,0.0,73,0.00,,,0.00,WUHU216HW,2013-01-21 12:31:00,
2013-01-21 06:36:00,12.0,4.9,29.42,NNW,338,0.0,0.0,73,0.00,,,0.00,WUHU216HW,2013-01-21 12:36:00,
2013-01-21 06:41:00,12.0,4.9,29.43,NNW,338,0.0,0.0,73,0.00,,,0.00,WUHU216HW,2013-01-21 12:41:00,
2013-01-21 06:46:00,11.8,4.7,29.44,NNW,338,0.0,0.0,73,0.00,,,0.00,WUHU216HW,2013-01-21 12:46:00,
2013-01-21 06:52:00,11.6,4.6,29.43,NNW,338,0.0,0.0,73,0.00,,,0.00,WUHU216HW,2013-01-21 12:52:00,
2013-01-21 06:57:00,11.4,4.4,29.43,NNW,338,0.0,0.0,73,0.00,,,0.00,WUHU216HW,2013-01-21 12:57:00,
2013-01-21 07:02:00,11.3,4.5,29.44,NNW,338,0.0,0.0,74,0.00,,,0.00,WUHU216HW,2013-01-21 13:02:00,
2013-01-21 07:07:00,11.4,4.7,29.44,NNW,338,0.0,0.0,74,0.00,,,0.00,WUHU216HW,2013-01-21 13:07:00,
2013-01-21 07:12:00,11.4,4.7,29.44,NNW,338,0.0,0.0,74,0.00,,,0.00,WUHU216HW,2013-01-21 13:12:00,
2013-01-21 07:17:00,11.8,5.0,29.44,NNW,338,0.0,0.0,74,0.00,,,0.00,WUHU216HW,2013-01-21 13:17:00,
2013-01-21 07:22:00,12.0,5.2,29.44,NNW,338,0.0,0.0,74,0.00,,,0.00,WUHU216HW,2013-01-21 13:22:00,
2013-01-21 07:27:00,12.0,5.2,29.45,NNW,338,0.0,0.0,74,0.00,,,0.00,WUHU216HW,2013-01-21 13:27:00,
2013-01-21 07:32:00,12.3,5.6,29.44,NNW,338,0.0,0.0,75,0.00,,,0.00,WUHU216HW,2013-01-21 13:32:00,
2013-01-21 07:37:00,12.5,6.0,29.45,NNW,338,0.0,0.0,75,0.00,,,0.00,WUHU216HW,2013-01-21 13:37:00,
2013-01-21 07:42:00,13.1,6.6,29.45,NNW,338,0.0,0.0,75,0.00,,,0.00,WUHU216HW,2013-01-21 13:42:00,
2013-01-21 07:47:00,13.6,7.4,29.44,NNW,338,0.0,0.0,76,0.00,,,0.00,WUHU216HW,2013-01-21 13:47:00,
2013-01-21 07:52:00,13.8,7.6,29.44,NNW,338,0.0,0.0,76,0.00,,,0.00,WUHU216HW,2013-01-21 13:52:00,
2013-01-21 07:57:00,14.1,7.9,29.44,NNW,338,0.0,0.0,76,0.00,,,0.00,WUHU216HW,2013-01-21 13:57:00,
2013-01-21 08:03:00,14.3,8.1,29.44,NNW,338,0.0,0.0,76,0.00,,,0.00,WUHU216HW,2013-01-21 14:03:00,
2013-01-21 08:08:00,14.7,8.2,29.44,NNW,338,0.0,0.0,75,0.00,,,0.00,WUHU216HW,2013-01-21 14:08:00,
2013-01-21 08:13:00,15.0,8.5,29.45,NNW,338,0.0,0.0,75,0.00,,,0.00,WUHU216HW,2013-01-21 14:13:00,
2013-01-21 08:18:00,15.6,9.0,29.45,NNW,338,0.0,0.0,75,0.00,,,0.00,WUHU216HW,2013-01-21 14:18:00,
2013-01-21 08:23:00,15.9,9.3,29.45,NNW,338,0.0,0.0,75,0.00,,,0.00,WUHU216HW,2013-01-21 14:23:00,
2013-01-21 08:28:00,16.5,9.9,29.45,NNW,338,0.0,0.0,75,0.00,,,0.00,WUHU216HW,2013-01-21 14:28:00,
2013-01-21 08:33:00,16.8,9.9,29.45,NNW,338,0.0,0.0,74,0.00,,,0.00,WUHU216HW,2013-01-21 14:33:00,
2013-01-21 08:38:00,17.4,10.4,29.45,NNW,338,0.0,3.5,74,0.00,,,0.00,WUHU216HW,2013-01-21 14:38:00,
2013-01-21 08:43:00,17.7,10.8,29.45,NNW,338,0.0,3.5,74,0.00,,,0.00,WUHU216HW,2013-01-21 14:43:00,
2013-01-21 08:49:00,17.9,11.0,29.46,North,0,0.0,0.0,73,0.00,,,0.00,WUHU216HW,2013-01-21 14:49:00,
2013-01-21 08:54:00,18.6,11.3,29.46,NNW,338,6.9,7.3,73,0.00,,,0.00,WUHU216HW,2013-01-21 14:54:00,
2013-01-21 08:59:00,18.8,11.2,29.46,NNE,23,4.6,7.3,72,0.00,,,0.00,WUHU216HW,2013-01-21 14:59:00,
2013-01-21 09:04:00,19.2,11.5,29.46,North,0,6.2,8.2,71,0.00,,,0.00,WUHU216HW,2013-01-21 15:04:00,
2013-01-21 09:09:00,19.5,11.6,29.46,North,0,8.2,14.5,71,0.00,,,0.00,WUHU216HW,2013-01-21 15:09:00,
2013-01-21 09:14:00,19.4,11.4,29.46,North,0,0.0,14.5,71,0.00,,,0.00,WUHU216HW,2013-01-21 15:14:00,
2013-01-21 09:19:00,19.5,11.3,29.46,North,0,9.6,10.9,70,0.00,,,0.00,WUHU216HW,2013-01-21 15:19:00,
2013-01-21 09:24:00,19.5,11.3,29.47,North,0,9.6,10.9,70,0.00,,,0.00,WUHU216HW,2013-01-21 15:24:00,
2013-01-21 09:29:00,19.5,10.9,29.47,NNE,23,10.5,10.5,69,0.00,,,0.00,WUHU216HW,2013-01-21 15:29:00,
2013-01-21 09:34:00,19.9,11.3,29.47,NNW,338,8.0,10.5,69,0.00,,,0.00,WUHU216HW,2013-01-21 15:34:00,
2013-01-21 09:39:00,19.9,11.3,29.47,NNE,23,11.4,11.4,69,0.00,,,0.00,WUHU216HW,2013-01-21 15:39:00,
2013-01-21 09:44:00,19.9,11.3,29.48,North,0,6.7,11.4,69,0.00,,,0.00,WUHU216HW,2013-01-21 15:44:00,
2013-01-21 09:49:00,19.9,11.3,29.47,North,0,5.1,11.4,69,0.00,,,0.00,WUHU216HW,2013-01-21 15:49:00,
2013-01-21 09:54:00,20.1,11.4,29.47,NW,315,8.0,8.2,69,0.00,,,0.00,WUHU216HW,2013-01-21 15:54:00,
2013-01-21 09:59:00,20.3,11.3,29.48,NNE,23,10.0,10.9,68,0.00,,,0.00,WUHU216HW,2013-01-21 15:59:00,
2013-01-21 10:04:00,20.3,10.9,29.48,North,0,9.1,10.9,67,0.00,,,0.00,WUHU216HW,2013-01-21 16:04:00,
2013-01-21 10:09:00,20.3,10.9,29.48,North,0,3.3,10.0,67,0.00,,,0.00,WUHU216HW,2013-01-21 16:09:00,
2013-01-21 10:14:00,20.4,11.1,29.48,NNW,338,4.4,8.7,67,0.00,,,0.00,WUHU216HW,2013-01-21 16:14:00,
2013-01-21 10:19:00,20.8,11.5,29.48,North,0,8.7,8.9,67,0.00,,,0.00,WUHU216HW,2013-01-21 16:19:00,
2013-01-21 10:24:00,20.8,11.1,29.48,NNW,338,0.0,8.9,66,0.00,,,0.00,WUHU216HW,2013-01-21 16:24:00,
2013-01-21 10:29:00,21.0,11.3,29.48,NNW,338,0.0,7.3,66,0.00,,,0.00,WUHU216HW,2013-01-21 16:29:00,
2013-01-21 10:34:00,21.3,11.3,29.48,NNW,338,0.0,7.3,65,0.00,,,0.00,WUHU216HW,2013-01-21 16:34:00,
2013-01-21 10:39:00,21.3,11.0,29.48,NW,315,9.3,12.3,64,0.00,,,0.00,WUHU216HW,2013-01-21 16:39:00,
2013-01-21 10:44:00,21.0,10.3,29.48,NW,315,11.4,12.3,63,0.00,,,0.00,WUHU216HW,2013-01-21 16:44:00,
2013-01-21 10:50:00,21.3,10.3,29.48,NNW,338,9.8,11.4,62,0.00,,,0.00,WUHU216HW,2013-01-21 16:50:00,
2013-01-21 10:55:00,21.3,10.3,29.48,North,0,6.0,11.4,62,0.00,,,0.00,WUHU216HW,2013-01-21 16:55:00,
2013-01-21 11:00:00,21.7,10.3,29.48,NNW,338,11.1,11.1,61,0.00,,,0.00,WUHU216HW,2013-01-21 17:00:00,
2013-01-21 11:05:00,21.9,9.7,29.48,NNW,338,7.8,11.1,59,0.00,,,0.00,WUHU216HW,2013-01-21 17:05:00,
2013-01-21 11:10:00,21.9,9.7,29.48,NNW,338,6.4,11.1,59,0.00,,,0.00,WUHU216HW,2013-01-21 17:10:00,
2013-01-21 11:15:00,22.1,9.5,29.48,North,0,5.5,7.8,58,0.00,,,0.00,WUHU216HW,2013-01-21 17:15:00,
2013-01-21 11:20:00,22.1,9.5,29.49,North,0,6.0,7.8,58,0.00,,,0.00,WUHU216HW,2013-01-21 17:20:00,
2013-01-21 11:25:00,21.9,9.3,29.49,North,0,5.5,6.9,58,0.00,,,0.00,WUHU216HW,2013-01-21 17:25:00,
2013-01-21 11:30:00,22.4,9.8,29.48,NNW,338,8.7,8.7,58,0.00,,,0.00,WUHU216HW,2013-01-21 17:30:00,
2013-01-21 11:35:00,22.6,9.5,29.48,North,0,8.0,8.7,57,0.00,,,0.00,WUHU216HW,2013-01-21 17:35:00,
2013-01-21 11:40:00,22.6,8.7,29.48,North,0,9.8,13.8,55,0.00,,,0.00,WUHU216HW,2013-01-21 17:40:00,
2013-01-21 11:45:00,22.2,8.4,29.48,NNE,23,0.0,13.8,55,0.00,,,0.00,WUHU216HW,2013-01-21 17:45:00,
2013-01-21 11:50:00,22.2,8.0,29.48,NNE,23,13.4,13.4,54,0.00,,,0.00,WUHU216HW,2013-01-21 17:50:00,
2013-01-21 11:55:00,21.9,7.7,29.47,NNW,338,15.2,15.4,54,0.00,,,0.00,WUHU216HW,2013-01-21 17:55:00,
2013-01-21 12:00:00,21.7,7.1,29.47,North,0,7.8,19.0,53,0.00,,,0.00,WUHU216HW,2013-01-21 18:00:00,
2013-01-21 12:05:00,21.9,7.7,29.46,North,0,10.2,19.0,54,0.00,,,0.00,WUHU216HW,2013-01-21 18:05:00,
2013-01-21 12:10:00,21.9,7.7,29.45,North,0,6.7,13.4,54,0.00,,,0.00,WUHU216HW,2013-01-21 18:10:00,
2013-01-21 12:15:00,22.2,8.0,29.45,NNW,338,8.5,13.4,54,0.00,,,0.00,WUHU216HW,2013-01-21 18:15:00,
2013-01-21 12:21:00,22.8,8.5,29.45,North,0,7.6,11.8,54,0.00,,,0.00,WUHU216HW,2013-01-21 18:21:00,
2013-01-21 12:26:00,22.8,8.5,29.45,NNW,338,0.0,11.8,54,0.00,,,0.00,WUHU216HW,2013-01-21 18:26:00,
2013-01-21 12:31:00,23.1,8.9,29.46,NNE,23,5.5,11.1,54,0.00,,,0.00,WUHU216HW,2013-01-21 18:31:00,
2013-01-21 12:36:00,23.0,7.5,29.45,NNW,338,9.3,11.1,51,0.00,,,0.00,WUHU216HW,2013-01-21 18:36:00,
2013-01-21 12:41:00,22.8,6.4,29.45,NNW,338,8.0,13.1,49,0.00,,,0.00,WUHU216HW,2013-01-21 18:41:00,
2013-01-21 12:46:00,23.0,5.7,29.45,NNW,338,12.0,13.1,47,0.00,,,0.00,WUHU216HW,2013-01-21 18:46:00,
2013-01-21 12:51:00,22.8,5.5,29.45,NNW,338,8.0,12.7,47,0.00,,,0.00,WUHU216HW,2013-01-21 18:51:00,
2013-01-21 12:56:00,23.1,5.8,29.45,NNE,23,9.8,12.7,47,0.00,,,0.00,WUHU216HW,2013-01-21 18:56:00,
2013-01-21 13:01:00,23.1,5.8,29.45,NNW,338,9.6,9.8,47,0.00,,,0.00,WUHU216HW,2013-01-21 19:01:00,
2013-01-21 13:06:00,23.1,5.8,29.46,NNW,338,8.0,9.8,47,0.00,,,0.00,WUHU216HW,2013-01-21 19:06:00,
2013-01-21 13:11:00,23.1,5.8,29.45,North,0,0.0,9.8,47,0.00,,,0.00,WUHU216HW,2013-01-21 19:11:00,
2013-01-21 13:16:00,23.3,6.0,29.44,NNW,338,6.9,9.8,47,0.00,,,0.00,WUHU216HW,2013-01-21 19:16:00,
2013-01-21 13:21:00,23.5,6.1,29.44,NNW,338,1.5,6.9,47,0.00,,,0.00,WUHU216HW,2013-01-21 19:21:00,
2013-01-21 13:27:00,23.5,6.1,29.44,NNW,338,0.6,10.5,47,0.00,,,0.00,WUHU216HW,2013-01-21 19:27:00,
2013-01-21 13:32:00,23.5,5.2,29.44,NNE,23,16.5,16.5,45,0.00,,,0.00,WUHU216HW,2013-01-21 19:32:00,
2013-01-21 13:37:00,23.1,4.4,29.44,NNW,338,7.1,16.5,44,0.00,,,0.00,WUHU216HW,2013-01-21 19:37:00,
2013-01-21 13:42:00,23.1,4.4,29.44,North,0,6.7,16.5,44,0.00,,,0.00,WUHU216HW,2013-01-21 19:42:00,
2013-01-21 13:47:00,23.0,4.2,29.44,NNW,338,5.5,14.3,44,0.00,,,0.00,WUHU216HW,2013-01-21 19:47:00,
2013-01-21 13:52:00,23.0,4.2,29.43,NW,315,0.0,12.9,44,0.00,,,0.00,WUHU216HW,2013-01-21 19:52:00,
2013-01-21 13:57:00,23.0,3.7,29.43,NNW,338,6.4,12.9,43,0.00,,,0.00,WUHU216HW,2013-01-21 19:57:00,
2013-01-21 14:02:00,23.1,4.4,29.43,NNW,338,8.5,10.2,44,0.00,,,0.00,WUHU216HW,2013-01-21 20:02:00,
2013-01-21 14:07:00,23.3,4.5,29.43,NNW,338,6.7,10.2,44,0.00,,,0.00,WUHU216HW,2013-01-21 20:07:00,
2013-01-21 14:12:00,23.5,4.2,29.43,NNW,338,12.5,12.5,43,0.00,,,0.00,WUHU216HW,2013-01-21 20:12:00,
2013-01-21 14:17:00,23.5,4.2,29.43,North,0,2.4,12.5,43,0.00,,,0.00,WUHU216HW,2013-01-21 20:17:00,
2013-01-21 14:22:00,23.5,4.2,29.43,NNW,338,7.8,11.8,43,0.00,,,0.00,WUHU216HW,2013-01-21 20:22:00,
2013-01-21 14:27:00,23.5,4.2,29.43,North,0,6.9,11.8,43,0.00,,,0.00,WUHU216HW,2013-01-21 20:27:00,
2013-01-21 14:32:00,23.7,4.4,29.43,NNW,338,0.0,7.8,43,0.00,,,0.00,WUHU216HW,2013-01-21 20:32:00,
2013-01-21 14:37:00,24.0,4.2,29.43,NNW,338,8.5,9.3,42,0.00,,,0.00,WUHU216HW,2013-01-21 20:37:00,
2013-01-21 14:43:00,24.0,4.2,29.43,North,0,8.0,9.3,42,0.00,,,0.00,WUHU216HW,2013-01-21 20:43:00,
2013-01-21 14:48:00,24.0,4.2,29.43,NNW,338,6.9,8.5,42,0.00,,,0.00,WUHU216HW,2013-01-21 20:48:00,
2013-01-21 14:53:00,24.0,4.2,29.43,NW,315,7.3,8.0,42,0.00,,,0.00,WUHU216HW,2013-01-21 20:53:00,
2013-01-21 14:58:00,23.9,4.0,29.43,NNW,338,7.1,7.3,42,0.00,,,0.00,WUHU216HW,2013-01-21 20:58:00,
2013-01-21 15:03:00,23.5,3.7,29.43,NNE,23,8.2,8.2,42,0.00,,,0.00,WUHU216HW,2013-01-21 21:03:00,
2013-01-21 15:08:00,23.1,3.9,29.43,NNW,338,0.0,8.2,43,0.00,,,0.00,WUHU216HW,2013-01-21 21:08:00,
2013-01-21 15:14:00,23.0,3.7,29.43,North,0,13.4,13.4,43,0.00,,,0.00,WUHU216HW,2013-01-21 21:14:00,
2013-01-21 15:19:00,22.8,3.5,29.42,North,0,9.6,13.4,43,0.00,,,0.00,WUHU216HW,2013-01-21 21:19:00,
2013-01-21 15:24:00,22.8,3.5,29.42,NNW,338,12.0,12.0,43,0.00,,,0.00,WUHU216HW,2013-01-21 21:24:00,
2013-01-21 15:29:00,22.8,3.5,29.43,NW,315,7.1,12.0,43,0.00,,,0.00,WUHU216HW,2013-01-21 21:29:00,
2013-01-21 15:34:00,22.6,3.4,29.42,NNW,338,6.2,9.8,43,0.00,,,0.00,WUHU216HW,2013-01-21 21:34:00,
2013-01-21 15:39:00,22.6,3.4,29.43,NNE,23,6.4,9.1,43,0.00,,,0.00,WUHU216HW,2013-01-21 21:39:00,
2013-01-21 15:44:00,22.4,3.2,29.42,North,0,0.0,9.1,43,0.00,,,0.00,WUHU216HW,2013-01-21 21:44:00,
2013-01-21 15:49:00,22.6,3.4,29.43,North,0,4.0,11.6,43,0.00,,,0.00,WUHU216HW,2013-01-21 21:49:00,
2013-01-21 15:54:00,22.6,3.4,29.42,NNW,338,10.5,11.6,43,0.00,,,0.00,WUHU216HW,2013-01-21 21:54:00,
2013-01-21 16:00:00,22.6,3.9,29.41,NW,315,5.3,10.5,44,0.00,,,0.00,WUHU216HW,2013-01-21 22:00:00,
2013-01-21 16:05:00,22.8,3.5,29.42,NW,315,6.7,10.5,43,0.00,,,0.00,WUHU216HW,2013-01-21 22:05:00,
2013-01-21 16:10:00,22.6,4.0,29.42,North,0,0.0,6.9,44,0.00,,,0.00,WUHU216HW,2013-01-21 22:10:00,
2013-01-21 16:15:00,22.6,3.9,29.42,NNW,338,0.0,6.7,44,0.00,,,0.00,WUHU216HW,2013-01-21 22:15:00,
2013-01-21 16:20:00,22.6,3.9,29.41,NNW,338,0.0,6.4,44,0.00,,,0.00,WUHU216HW,2013-01-21 22:20:00,
2013-01-21 16:25:00,22.4,3.7,29.41,NW,315,0.0,0.0,44,0.00,,,0.00,WUHU216HW,2013-01-21 22:25:00,
2013-01-21 16:30:00,22.4,3.7,29.41,NNW,338,0.0,0.0,44,0.00,,,0.00,WUHU216HW,2013-01-21 22:30:00,
2013-01-21 16:36:00,22.1,3.3,29.41,NW,315,6.2,6.4,44,0.00,,,0.00,WUHU216HW,2013-01-21 22:36:00,
2013-01-21 16:41:00,21.9,3.2,29.41,NNW,338,0.0,6.4,44,0.00,,,0.00,WUHU216HW,2013-01-21 22:41:00,
2013-01-21 16:46:00,21.7,3.5,29.41,NNW,338,7.6,9.6,45,0.00,,,0.00,WUHU216HW,2013-01-21 22:46:00,
2013-01-21 16:51:00,21.3,3.1,29.41,NNW,338,8.2,9.6,45,0.00,,,0.00,WUHU216HW,2013-01-21 22:51:00,
2013-01-21 16:56:00,21.0,3.3,29.41,NW,315,3.8,8.2,46,0.00,,,0.00,WUHU216HW,2013-01-21 22:56:00,
2013-01-21 17:01:00,20.8,3.1,29.41,NNW,338,6.0,8.2,46,0.00,,,0.00,WUHU216HW,2013-01-21 23:01:00,
2013-01-21 17:06:00,20.4,2.8,29.42,NW,315,0.0,10.9,46,0.00,,,0.00,WUHU216HW,2013-01-21 23:06:00,
2013-01-21 17:11:00,20.3,2.9,29.42,NNW,338,0.0,10.9,47,0.00,,,0.00,WUHU216HW,2013-01-21 23:11:00,
2013-01-21 17:16:00,20.1,2.9,29.41,NNW,338,0.0,5.3,47,0.00,,,0.00,WUHU216HW,2013-01-21 23:16:00,
2013-01-21 17:21:00,19.9,3.2,29.41,NW,315,7.1,7.1,48,0.00,,,0.00,WUHU216HW,2013-01-21 23:21:00,
2013-01-21 17:26:00,19.7,2.9,29.41,NW,315,0.0,7.1,48,0.00,,,0.00,WUHU216HW,2013-01-21 23:26:00,
2013-01-21 17:31:00,19.5,2.9,29.41,NNW,338,0.0,0.0,48,0.00,,,0.00,WUHU216HW,2013-01-21 23:31:00,
2013-01-21 17:36:00,19.5,2.9,29.41,NNW,338,5.5,5.5,48,0.00,,,0.00,WUHU216HW,2013-01-21 23:36:00,
2013-01-21 17:42:00,19.2,3.2,29.41,NNW,338,0.0,5.5,49,0.00,,,0.00,WUHU216HW,2013-01-21 23:42:00,
2013-01-21 17:47:00,19.2,3.1,29.41,NNW,338,2.4,5.8,49,0.00,,,0.00,WUHU216HW,2013-01-21 23:47:00,
2013-01-21 17:52:00,19.2,3.1,29.41,North,0,0.0,5.8,49,0.00,,,0.00,WUHU216HW,2013-01-21 23:52:00,
2013-01-21 17:57:00,19.0,2.9,29.41,North,0,8.5,8.5,49,0.00,,,0.00,WUHU216HW,2013-01-21 23:57:00,
2013-01-21 18:02:00,19.0,2.9,29.41,NW,315,0.0,8.5,49,0.00,,,0.00,WUHU216HW,2013-01-22 00:02:00,
2013-01-21 18:07:00,18.8,3.2,29.41,North,0,0.0,8.5,50,0.00,,,0.00,WUHU216HW,2013-01-22 00:07:00,
2013-01-21 18:12:00,18.6,3.0,29.41,NNW,338,4.4,4.4,50,0.00,,,0.00,WUHU216HW,2013-01-22 00:12:00,
2013-01-21 18:17:00,18.5,2.9,29.41,NNW,338,0.0,4.4,50,0.00,,,0.00,WUHU216HW,2013-01-22 00:17:00,
2013-01-21 18:22:00,18.3,2.7,29.41,NNW,338,0.2,4.4,50,0.00,,,0.00,WUHU216HW,2013-01-22 00:22:00,
2013-01-21 18:27:00,17.7,2.2,29.41,NNW,338,0.0,0.2,50,0.00,,,0.00,WUHU216HW,2013-01-22 00:27:00,
2013-01-21 18:32:00,17.4,2.3,29.40,NNW,338,0.0,0.0,51,0.00,,,0.00,WUHU216HW,2013-01-22 00:32:00,
2013-01-21 18:37:00,17.4,2.3,29.40,North,0,7.8,7.8,51,0.00,,,0.00,WUHU216HW,2013-01-22 00:37:00,
2013-01-21 18:42:00,17.2,2.1,29.41,NNW,338,0.0,7.8,51,0.00,,,0.00,WUHU216HW,2013-01-22 00:42:00,
2013-01-21 18:47:00,16.8,2.2,29.40,NNW,338,0.0,0.0,52,0.00,,,0.00,WUHU216HW,2013-01-22 00:47:00,
2013-01-21 18:52:00,16.8,2.2,29.40,NNW,338,0.0,0.0,52,0.00,,,0.00,WUHU216HW,2013-01-22 00:52:00,
2013-01-21 18:57:00,16.5,1.9,29.40,NNW,338,0.0,0.0,52,0.00,,,0.00,WUHU216HW,2013-01-22 00:57:00,
2013-01-21 19:02:00,16.3,2.1,29.41,NNW,338,0.0,0.0,53,0.00,,,0.00,WUHU216HW,2013-01-22 01:02:00,
2013-01-21 19:07:00,16.3,2.1,29.41,NNW,338,0.0,0.0,53,0.00,,,0.00,WUHU216HW,2013-01-22 01:07:00,
2013-01-21 19:12:00,15.9,1.7,29.40,NNW,338,0.0,0.0,53,0.00,,,0.00,WUHU216HW,2013-01-22 01:12:00,
2013-01-21 19:17:00,15.9,1.7,29.40,NNW,338,0.0,0.0,53,0.00,,,0.00,WUHU216HW,2013-01-22 01:17:00,
2013-01-21 19:22:00,15.9,1.7,29.41,NNW,338,0.0,0.0,53,0.00,,,0.00,WUHU216HW,2013-01-22 01:22:00,
2013-01-21 19:27:00,16.1,1.9,29.40,NNW,338,0.0,0.0,53,0.00,,,0.00,WUHU216HW,2013-01-22 01:27:00,
2013-01-21 19:32:00,16.1,1.9,29.40,NNW,338,0.0,0.0,53,0.00,,,0.00,WUHU216HW,2013-01-22 01:32:00,
2013-01-21 19:37:00,16.3,2.1,29.40,NNW,338,0.0,0.0,53,0.00,,,0.00,WUHU216HW,2013-01-22 01:37:00,
2013-01-21 19:42:00,16.3,2.1,29.40,NNW,338,0.0,0.0,53,0.00,,,0.00,WUHU216HW,2013-01-22 01:42:00,
2013-01-21 19:47:00,16.3,2.1,29.40,NNW,338,0.0,0.0,53,0.00,,,0.00,WUHU216HW,2013-01-22 01:47:00,
2013-01-21 19:53:00,16.3,2.5,29.40,NNW,338,0.0,0.0,54,0.00,,,0.00,WUHU216HW,2013-01-22 01:53:00,
2013-01-21 19:58:00,16.3,2.8,29.40,NNW,338,0.0,0.0,55,0.00,,,0.00,WUHU216HW,2013-01-22 01:58:00,
2013-01-21 20:03:00,16.5,3.0,29.40,NNW,338,0.0,0.0,55,0.00,,,0.00,WUHU216HW,2013-01-22 02:03:00,
2013-01-21 20:08:00,16.5,3.0,29.40,NNW,338,0.0,0.0,55,0.00,,,0.00,WUHU216HW,2013-01-22 02:08:00,
2013-01-21 20:13:00,16.5,3.0,29.40,NNW,338,0.0,0.0,55,0.00,,,0.00,WUHU216HW,2013-01-22 02:13:00,
2013-01-21 20:18:00,16.5,3.0,29.40,NNW,338,0.0,0.0,55,0.00,,,0.00,WUHU216HW,2013-01-22 02:18:00,
2013-01-21 20:23:00,16.3,2.8,29.40,NNW,338,0.0,0.0,55,0.00,,,0.00,WUHU216HW,2013-01-22 02:23:00,
2013-01-21 20:28:00,16.1,2.7,29.39,NNW,338,0.0,0.0,55,0.00,,,0.00,WUHU216HW,2013-01-22 02:28:00,
2013-01-21 20:33:00,15.9,2.3,29.40,NNW,338,0.0,0.0,55,0.00,,,0.00,WUHU216HW,2013-01-22 02:33:00,
2013-01-21 20:38:00,15.6,2.2,29.40,NNW,338,0.0,0.0,55,0.00,,,0.00,WUHU216HW,2013-01-22 02:38:00,
2013-01-21 20:43:00,15.4,2.4,29.40,NNW,338,0.0,0.0,56,0.00,,,0.00,WUHU216HW,2013-01-22 02:43:00,
2013-01-21 20:48:00,14.9,2.3,29.40,NNW,338,0.0,0.0,56,0.00,,,0.00,WUHU216HW,2013-01-22 02:48:00,
2013-01-21 20:53:00,14.7,2.1,29.40,NNW,338,0.0,0.0,57,0.00,,,0.00,WUHU216HW,2013-01-22 02:53:00,
2013-01-21 20:58:00,14.1,1.6,29.40,NNW,338,0.0,0.0,57,0.00,,,0.00,WUHU216HW,2013-01-22 02:58:00,
2013-01-21 21:03:00,14.0,1.8,29.40,NNW,338,0.0,0.0,58,0.00,,,0.00,WUHU216HW,2013-01-22 03:03:00,
2013-01-21 21:08:00,13.8,2.0,29.41,NNW,338,0.0,0.0,59,0.00,,,0.00,WUHU216HW,2013-01-22 03:08:00,
2013-01-21 21:13:00,13.6,1.5,29.42,NNW,338,0.0,0.0,58,0.00,,,0.00,WUHU216HW,2013-01-22 03:13:00,
2013-01-21 21:18:00,13.6,1.9,29.42,NNW,338,0.0,0.0,58,0.00,,,0.00,WUHU216HW,2013-01-22 03:18:00,
2013-01-21 21:23:00,13.6,1.9,29.42,NNW,338,0.0,0.0,59,0.00,,,0.00,WUHU216HW,2013-01-22 03:23:00,
2013-01-21 21:28:00,13.8,2.4,29.43,NNW,338,0.0,0.0,60,0.00,,,0.00,WUHU216HW,2013-01-22 03:28:00,
2013-01-21 21:33:00,14.1,2.8,29.43,NNW,338,0.0,0.0,60,0.00,,,0.00,WUHU216HW,2013-01-22 03:33:00,
2013-01-21 21:38:00,14.1,2.8,29.42,NNW,338,0.0,0.0,60,0.00,,,0.00,WUHU216HW,2013-01-22 03:38:00,
2013-01-21 21:43:00,14.1,2.8,29.42,NNW,338,0.0,0.0,60,0.00,,,0.00,WUHU216HW,2013-01-22 03:43:00,
2013-01-21 21:48:00,14.3,2.9,29.41,NNW,338,0.0,0.0,60,0.00,,,0.00,WUHU216HW,2013-01-22 03:48:00,
2013-01-21 21:53:00,14.3,2.9,29.41,NNW,338,0.0,0.0,60,0.00,,,0.00,WUHU216HW,2013-01-22 03:53:00,
2013-01-21 21:58:00,14.3,2.9,29.40,NNW,338,0.0,0.0,60,0.00,,,0.00,WUHU216HW,2013-01-22 03:58:00,
2013-01-21 22:03:00,14.5,3.1,29.41,NNW,338,0.0,0.0,60,0.00,,,0.00,WUHU216HW,2013-01-22 04:03:00,
2013-01-21 22:08:00,14.7,3.3,29.41,NNW,338,0.0,0.0,60,0.00,,,0.00,WUHU216HW,2013-01-22 04:08:00,
2013-01-21 22:13:00,15.0,3.6,29.41,NNW,338,0.0,0.0,60,0.00,,,0.00,WUHU216HW,2013-01-22 04:13:00,
2013-01-21 22:18:00,15.2,3.3,29.42,NNW,338,0.0,0.0,59,0.00,,,0.00,WUHU216HW,2013-01-22 04:18:00,
2013-01-21 22:23:00,15.6,4.1,29.42,NNW,338,0.0,0.0,60,0.00,,,0.00,WUHU216HW,2013-01-22 04:23:00,
2013-01-21 22:28:00,15.6,3.7,29.42,NNW,338,0.0,0.0,59,0.00,,,0.00,WUHU216HW,2013-01-22 04:28:00,
2013-01-21 22:34:00,15.9,4.0,29.42,NNW,338,0.0,0.0,59,0.00,,,0.00,WUHU216HW,2013-01-22 04:34:00,
2013-01-21 22:39:00,15.9,4.0,29.42,NNW,338,0.0,0.0,59,0.00,,,0.00,WUHU216HW,2013-01-22 04:39:00,
2013-01-21 22:44:00,16.3,4.4,29.42,NNW,338,0.0,0.0,59,0.00,,,0.00,WUHU216HW,2013-01-22 04:44:00,
2013-01-21 22:49:00,16.3,4.4,29.42,NNW,338,0.0,0.0,59,0.00,,,0.00,WUHU216HW,2013-01-22 04:49:00,
2013-01-21 22:54:00,16.3,4.4,29.42,NNW,338,0.0,0.0,59,0.00,,,0.00,WUHU216HW,2013-01-22 04:54:00,
2013-01-21 22:59:00,16.3,4.4,29.41,NNW,338,0.0,0.0,59,0.00,,,0.00,WUHU216HW,2013-01-22 04:59:00,
2013-01-21 23:00:00,16.3,4.4,29.41,NNW,338,0.0,0.0,59,0.00,,,0.00,WUHU216HW,2013-01-22 05:00:00,
2013-01-21 23:01:00,16.3,4.4,29.41,NNW,338,0.0,0.0,59,0.00,,,0.00,WUHU216HW,2013-01-22 05:01:00,
2013-01-21 23:06:00,16.3,4.4,29.41,NNW,338,0.0,0.0,59,0.00,,,0.00,WUHU216HW,2013-01-22 05:06:00,
2013-01-21 23:11:00,16.5,4.6,29.41,NNW,338,0.0,0.0,59,0.00,,,0.00,WUHU216HW,2013-01-22 05:11:00,
2013-01-21 23:16:00,16.5,4.6,29.40,NNW,338,0.0,0.0,59,0.00,,,0.00,WUHU216HW,2013-01-22 05:16:00,
2013-01-21 23:21:00,16.5,4.6,29.40,NNW,338,0.0,0.0,59,0.00,,,0.00,WUHU216HW,2013-01-22 05:21:00,
2013-01-21 23:26:00,16.5,4.6,29.41,NNW,338,0.0,0.0,59,0.00,,,0.00,WUHU216HW,2013-01-22 05:26:00,
2013-01-21 23:31:00,16.5,4.6,29.40,NNW,338,0.0,0.0,59,0.00,,,0.00,WUHU216HW,2013-01-22 05:31:00,
2013-01-21 23:36:00,16.7,4.7,29.40,NNW,338,0.0,0.0,59,0.00,,,0.00,WUHU216HW,2013-01-22 05:36:00,
2013-01-21 23:42:00,16.7,4.7,29.42,NNW,338,0.0,0.0,59,0.00,,,0.00,WUHU216HW,2013-01-22 05:42:00,
2013-01-21 23:47:00,16.7,4.7,29.41,NNW,338,0.0,0.0,59,0.00,,,0.00,WUHU216HW,2013-01-22 05:47:00,
2013-01-21 23:52:00,16.8,4.9,29.41,NNW,338,0.0,0.0,59,0.00,,,0.00,WUHU216HW,2013-01-22 05:52:00,
2013-01-21 23:57:00,16.8,4.9,29.41,NNW,338,0.0,0.0,59,0.00,,,0.00,WUHU216HW,2013-01-22 05:57:00,